Home > Weather > Midland > Past weeks

Flag for USA Past Weather in Midland, Texas, USA — Yesterday and Last 2 Weeks

Now
79 °F

Scattered clouds.


Feels Like: 79 °F
Forecast: 68 / 86 °F
Wind: No wind

Location: Midland - Midland Airpark

Current Time: May 31, 2016 at 1:03:55 PM

Latest Report: May 31, 2016 at 12:15 PM


Visibility: 10 mi

Pressure: 29.97 "Hg (27.21 "Hg at 847m altitude)

Humidity: 41%

Dew Point: 53 °F

Location of MidlandLocation

Past Weather in Midland — Graph

°F

Midland Temperature Yesterday

Maximum temperature yesterday: 94 °F (at 4:55 PM)
Minimum temperature yesterday: 61 °F (at 6:15 AM)
Average temperature yesterday: 72 °F

High & Low Weather Summary for the Past Weeks

 TemperatureHumidityPressure
High100 °F (May 24, 4:15 PM)100% (May 17, 7:55 PM)30.22 "Hg (May 17, 7:55 PM)
Low52 °F (May 18, 7:35 AM)4% (May 24, 4:55 PM)29.68 "Hg (May 26, 6:15 PM)
Average76 °F55%29.95 "Hg
* Reported May 16 11:15 AM — May 31 11:35 AM, Midland, Weather by CustomWeather, © 2016

Note: Actual official high and low records may vary slightly from our data, if they occured in-between our weather recording intervals... More about our weather records

Advertising

Midland Weather History for the Previous 24 Hours

Scroll right to see more
 ConditionsComfort  
Time TempWeatherWind HumidityBarometerVisibility
11:35 AM
Tue, May 31
79 °FSunny.6 mph43%29.97 "Hg10 mi
11:15 AM79 °FSunny.8 mph46%29.96 "Hg10 mi
10:55 AM78 °FSunny.No wind47%29.96 "Hg10 mi
10:35 AM78 °FSunny.6 mph49%29.96 "Hg10 mi
10:15 AM76 °FSunny.7 mph54%29.96 "Hg10 mi
9:55 AM76 °FSunny.7 mph55%29.97 "Hg10 mi
9:35 AM76 °FSunny.5 mph57%29.96 "Hg10 mi
9:15 AM75 °FSunny.6 mph69%29.96 "Hg10 mi
8:55 AM73 °FSunny.6 mph75%29.96 "Hg10 mi
8:15 AM70 °FSunny.7 mph78%29.95 "Hg10 mi
7:55 AM68 °FSunny.3 mph83%29.95 "Hg10 mi
7:35 AM67 °FClear.3 mph86%29.94 "Hg10 mi
7:15 AM66 °FClear.No wind88%29.94 "Hg10 mi
6:55 AM65 °FClear.No wind88%29.93 "Hg10 mi
6:35 AM65 °FClear.No wind88%29.93 "Hg10 mi
6:15 AM65 °FPassing clouds.5 mph89%29.93 "Hg10 mi
5:55 AM65 °FPassing clouds.3 mph96%29.93 "Hg10 mi
5:35 AM65 °FPassing clouds.3 mph88%29.93 "Hg10 mi
5:15 AM66 °FPassing clouds.No wind83%29.93 "Hg10 mi
4:55 AM65 °FPassing clouds.5 mph85%29.93 "Hg10 mi
4:35 AM65 °FClear.3 mph87%29.93 "Hg10 mi
4:15 AM65 °FClear.5 mph86%29.93 "Hg10 mi
3:55 AM65 °FClear.No wind88%29.94 "Hg10 mi
3:35 AM65 °FClear.No wind87%29.94 "Hg10 mi
3:15 AM65 °FClear.No wind87%29.96 "Hg10 mi
2:55 AM65 °FClear.No wind87%29.96 "Hg10 mi
2:35 AM65 °FClear.No wind85%29.96 "Hg10 mi
2:15 AM64 °FClear.No wind85%29.96 "Hg10 mi
1:55 AM64 °FClear.No wind85%29.97 "Hg10 mi
1:15 AM64 °FClear.No wind85%29.99 "Hg10 mi
12:55 AM64 °FPassing clouds.7 mph84%30.00 "Hg10 mi
12:35 AM64 °FThunderstorms. Overcast.7 mph86%30.00 "Hg7 mi
12:15 AM64 °FThundershowers. Mostly cloudy.5 mph85%30.01 "Hg10 mi
11:55 PM
Mon, May 30
63 °FThunderstorms. Overcast.13 mph81%30.01 "Hg7 mi
11:35 PM64 °FStrong thunderstorms. Overcast.21 mph81%30.02 "Hg4 mi
10:55 PM67 °FThundershowers. Partly cloudy.50 mph69%30.04 "Hg10 mi
10:35 PM74 °FThundershowers. Passing clouds.6 mph67%29.95 "Hg7 mi
10:15 PM72 °FThunderstorms. Overcast.9 mph64%29.96 "Hg7 mi
9:55 PM70 °FThunderstorms. Passing clouds.20 mph67%29.96 "Hg10 mi
9:35 PM69 °FThunderstorms. Scattered clouds.17 mph74%29.96 "Hg7 mi
9:15 PM68 °FThunderstorms. Scattered clouds.21 mph70%29.95 "Hg7 mi
8:55 PM69 °FThunderstorms. Scattered clouds.14 mph73%29.95 "Hg7 mi
8:15 PM77 °FThundershowers. Mostly cloudy.15 mph56%29.93 "Hg10 mi
7:55 PM74 °FThundershowers. More clouds than sun.12 mph64%29.93 "Hg10 mi
7:15 PM87 °FScattered clouds.17 mph37%29.88 "Hg10 mi
6:55 PM85 °FThundershowers. Broken clouds.7 mph34%29.87 "Hg10 mi
6:15 PM82 °FThunderstorms. Partly sunny.12 mph48%29.89 "Hg10 mi
5:55 PM82 °FThunderstorms. Cloudy.5 mph54%29.89 "Hg10 mi
5:35 PM88 °FThunderstorms. Broken clouds.6 mph36%29.90 "Hg10 mi
5:15 PM90 °FPartly sunny.9 mph30%29.90 "Hg10 mi
4:55 PM94 °FBroken clouds.10 mph28%29.91 "Hg10 mi
4:35 PM91 °FSunny.10 mph29%29.92 "Hg10 mi
4:15 PM90 °FSunny.5 mph31%29.93 "Hg10 mi
3:55 PM90 °FScattered clouds.7 mph31%29.95 "Hg10 mi
3:15 PM88 °FSunny.13 mph35%29.97 "Hg10 mi
2:55 PM88 °FSunny.7 mph38%29.98 "Hg10 mi
2:15 PM86 °FScattered clouds.10 mph43%30.01 "Hg10 mi
1:55 PM85 °FPartly sunny.13 mph46%30.03 "Hg10 mi
1:15 PM83 °FPartly sunny.12 mph50%30.04 "Hg10 mi
Weather by CustomWeather, © 2016

See weather overviewHow to use our weather pages